Starlink 4057

operational
NORAD ID: 53269 Int'l Des: 2022-086 Owner: SPXS Country: US Constellation: starlink
LEOCIRCULAR

Starlink 4057について

説明を読み込み中...

リアルタイム位置

3D地球を読み込み中...

次回通過

高度履歴

Altitude vs Time

uPlot chart will show altitude changes over time

軌道要素

1 53269U 22086AD 25258.24060012 -.00000057 00000-0 14517-4 0 9995
2 53269 53.2171 251.7439 0001386 87.4035 272.7116 15.08837715174713
Epoch: Sep 15, 2025 • Age: 8 hours

現在のステータス

高度 555.2 km
速度 7.58 km/s
衛星直下点 -43.50°S, 8.73°E
打ち上げ日 Jul 24, 2022
運用期間 3.1 years
タイプ internet

技術仕様

分類 Payload
質量 297.00 kg
乾燥質量 275.00 kg
総質量 297.00 kg
長さ 0.20 m
直径 2.80 m
スパン 9.00 m
形状 Box + pan
製造者 SPXS
バスタイプ Starlink
フェーズステータス In Orbit
所有者/国 SPXS/US

大規模コンステレーション

Loading constellations...